Flag for Canada Weather past 2 weeks in Yorkton, Saskatchewan, Canada

Now
36 °F

Sunny.


Feels Like: 26 °F
Forecast: N/A
Wind: 15 mph from Southeast

Location: Yorkton


UV Index: N/A

Visibility: 9 mi


Pressure: 30.31 "Hg

Humidity: 38%

Dew point: 12 °F

Location of YorktonLocation

Historic Weather in Yorkton

°F

Yorkton temperature yesterday

Maximum temperature yesterday: 30 °F (at 4:00 PM)
Minimum temperature yesterday: 16 °F (at 5:00 AM)
Average temperature yesterday: 23 °F

Past Weeks' High & Low Weather Summary

 TemperatureHumidityPressure
High48 °F (Apr 10, 3:00 PM)100% (Apr 3, 6:00 AM)30.45 "Hg (Apr 3, 6:00 AM)
Low7 °F (Apr 14, 6:00 AM)35% (Apr 5, 6:00 PM)29.38 "Hg (Apr 9, 8:00 AM)
Average28 °F74%30.02 "Hg
* Reported Apr 2 2:00 PM — Apr 17 2:00 PM, Yorkton, Weather by CustomWeather, © 2014

Note: Actual official high and low records may vary slightly from our data, if they occured in-between our weather recording intervals... More about our weather records

Advertising

Historic Weather Conditions — Data for Previous 24 hours

 ConditionsComfort  
Time TempWeatherWind HumidityBarometerVisibility
2:00 PM
Apr 17
34 °FSunny.17 mph41%30.33 "Hg9 mi
1:00 PM32 °FSunny.15 mph44%30.35 "Hg9 mi
12:00 PM30 °FSunny.15 mph47%30.36 "Hg9 mi
11:00 AM28 °FSunny.15 mph47%30.38 "Hg9 mi
10:00 AM27 °FSunny.17 mph46%30.40 "Hg9 mi
9:00 AM25 °FSunny.14 mph50%30.40 "Hg9 mi
8:00 AM21 °FSunny.15 mph63%30.42 "Hg9 mi
7:00 AM18 °FSunny.9 mph73%30.42 "Hg9 mi
6:00 AM14 °FSunny.6 mph85%30.42 "Hg9 mi
5:00 AM16 °FClear.6 mph79%30.43 "Hg9 mi
4:00 AM18 °FClear.8 mph73%30.43 "Hg9 mi
3:00 AM18 °FClear.7 mph73%30.43 "Hg9 mi
2:00 AM18 °FClear.7 mph68%30.44 "Hg9 mi
1:00 AM18 °FClear.6 mph73%30.44 "Hg9 mi
12:00 AM18 °FClear.6 mph73%30.45 "Hg9 mi
11:00 PM
Apr 16
19 °FClear.7 mph68%30.45 "Hg9 mi
10:00 PM19 °FClear.7 mph73%30.45 "Hg9 mi
9:00 PM21 °FClear.6 mph63%30.45 "Hg9 mi
8:00 PM25 °FClear.7 mph59%30.44 "Hg9 mi
7:00 PM28 °FSunny.8 mph40%30.43 "Hg9 mi
6:00 PM30 °FSunny.8 mph37%30.42 "Hg9 mi
5:00 PM30 °FSunny.6 mph37%30.42 "Hg9 mi
4:00 PM30 °FSunny.8 mph37%30.41 "Hg9 mi
3:00 PM28 °FSunny.6 mph40%30.41 "Hg9 mi
Weather by CustomWeather, © 2014

See weather overview